Regional Weather Roundup
Issued by NWS New Orleans/Baton Rouge, LA

Home | Current Version | Previous Version | Text Only | Print | Product List | Glossary On
Versions: 1 2 3 4 5 6 7 8 9 10 11 12 13 14 15 16 17 18 19 20 21 22 23 24 25 26 27 28 29 30 31 32 33 34 35 36 37 38 39 40 41 42 43 44 45 46 47 48 49 50
000
ASUS44 KLIX 260913
RWRLIX
NEW ORLEANS REGIONAL WEATHER ROUNDUP
NATIONAL WEATHER SERVICE NEW ORLEANS LA
400 AM CDT FRI MAY 26 2017

NOTE: "FAIR" INDICATES FEW OR NO CLOUDS BELOW 12,000 FEET WITH NO
      SIGNIFICANT WEATHER AND/OR OBSTRUCTIONS TO VISIBILITY.
      SKY/WX - SKY CONDITION AND SIGNIFICANT WEATHER.
      TMP - AIR TEMPERATURE.     DP    - DEWPOINT TEMPERATURE.
      RH  - RELATIVE HUMIDITY.   PRES  - PRESSURE.
      HI  - HEAT INDEX.          WCI   - WIND CHILL INDEX.

*  THESE STATIONS ARE NOT NWS OR FAA STATIONS AND ARE NOT UNDER
   NWS QUALITY CONTROL.

LAZ038-040-048-061>063-065>067-069-261000-
SOUTHEAST LOUISIANA

CITY           SKY/WX    TMP DP  RH WIND       PRES   REMARKS
N.O. INTL ARPT CLEAR     70  63  78 S6        29.92R
N.O. LAKEFRONT CLEAR     70  63  78 S9        29.93S
N.O. DOWNTOWN*   N/A     74  63  68 S6          N/A
RESERVE*         N/A     68  62  81 S6        29.92R
SLIDELL        CLEAR     67  62  84 CALM      29.92S
BATON ROUGE    CLEAR     67  61  81 S7        29.91R
BOOTHVILLE     CLEAR     70  65  84 SE5       29.96R
BELLE CHASSE   CLEAR    N/A N/A N/A S7        29.92S
BOGALUSA*        N/A     66  61  84 CALM      29.95R
GALLIANO*      SUNNY     64  61  87 SE5       29.93R
NEW ROADS*       N/A     65  62  88 S5        29.90R
GONZALES*        N/A     67  62  82 S3        29.91R
HAMMOND*       CLEAR     64  59  82 SE5       29.92S
HOUMA*         NOT AVBL
PORT FOURCHON* SUNNY     75  63  64 S13G20    29.93S

$$

MSZ070-080>082-261000-
SOUTHERN MISSISSIPPI

CITY           SKY/WX    TMP DP  RH WIND       PRES   REMARKS
MCCOMB         CLEAR     62  60  93 S5        29.92R
GULFPORT       PTCLDY    74  61  63 S6        29.94R
BILOXI         PTCLDY    74  61  64 SW14      29.94R
PASCAGOULA     CLEAR     61  59  93 CALM      29.95R

$$

COASTAL OBSERVATIONS
LAKE AND NEARSHORE STATIONS

STATION/POSITION TIME  TEMP    WIND        PRES    WAVE
                       AIR SEA DIR/SP/G            HT/PER
                 (UTC) (F)     (DEG/KT/KT) (MB)    (FT/S)
PASCAGOULA       0848   75     220/ 12/ 14 1013.8
WAVELAND YACHT   0848          210/  8/ 12   N/A
GRAND ISLE       0848   75 79  170/  8/ 12 1013.5
SOUTHWEST PASS   0848          170/ 12/ 14   N/A
NEW CANAL        0848   72 78  180/  4/  6 1013.0
SHELL BEACH      0848          170/  7/  9   N/A

OFFSHORE STATIONS

STATION/POSITION TIME  TEMP    WIND        PRES    WAVE
                       AIR SEA DIR/SP/G            HT/PER
                 (UTC) (F)     (DEG/KT/KT) (MB)    (FT/S)
64 S DAUPHIN ISL 0850   75 77  160/ 10/ 12 1014.8    1/ 7

$$




USA.gov is the U.S. government's official web portal to all federal, state and local government web resources and services.